Weather History for Doha, Qatar

Change the Weather History Date:

Sunday, June 20, 2010

  Actual Average Record
Temperature  
Mean Temperature 104 °F -  
Max Temperature 119 °F 107 °F 113 °F (2000)
Min Temperature 90 °F 83 °F 84 °F (2014)
Cooling Degree Days 40    
Growing Degree Days 54 (Base 50)    
Moisture  
Dew Point 71 °F    
Average Humidity 44    
Maximum Humidity 79    
Minimum Humidity 10    
Precipitation  
Precipitation 0.00 in 0.00 in - ()
Sea Level Pressure  
Sea Level Pressure 29.56 in    
Wind  
Wind Speed 6 mph ()    
Max Wind Speed 13 mph    
Max Gust Speed -    
Visibility 5.5 miles    
Events      
Averages and records for this station are not official NWS values.
T = Trace of Precipitation, MM = Missing Value Source: Averaged Metar Reports

Daily Weather History Graph

Daily Weather History Graph

Search for Another Location

Airport:

Trip Planner

Search our weather history database for the weather conditions in past years. The results will help you decide how hot, cold, wet, or windy it might be!

Date:

Astronomy

Jun. 20, 2010 Rise Set
Actual Time 4:43 AM AST 6:26 PM AST
Civil Twilight 4:17 AM AST 6:52 PM AST
Nautical Twilight 3:46 AM AST 7:23 PM AST
Astronomical Twilight 3:14 AM AST 7:56 PM AST
Moon 12:48 PM AST (6/20) No Moon Set
Length of Visible Light 14h 34m
Length of Day
13h 42m
Waxing Gibbous, 63% of the Moon is Illuminated
Jun 20
Waxing Gibbous
Jun 26
Full
Jul 4
Last Quarter
Jul 11
New
Jul 18
First Quarter

Hourly Weather History & Observations

Time (AST) Temp. Heat Index Dew Point Humidity Pressure Visibility Wind Dir Wind Speed Gust Speed Precip Events Conditions
12:00 AM 95.0 °F 107.4 °F 75.2 °F 53% 29.53 in - Variable 2.3 mph - N/A   Clear
1:00 AM 95.0 °F 107.4 °F 75.2 °F 53% 29.56 in - SSE 4.6 mph - N/A   Clear
2:00 AM 95.0 °F 107.4 °F 75.2 °F 53% 29.56 in - South 5.8 mph - N/A   Clear
3:00 AM 92 °F - 79 °F 58% 29.57 in 7 mi SSW 8.1 mph - -   Scattered Clouds
4:00 AM 91.4 °F 114.3 °F 82.4 °F 75% 29.56 in - SSW 6.9 mph - N/A   Clear
5:00 AM 91.4 °F 117.8 °F 84.2 °F 79% 29.59 in - SW 6.9 mph - N/A   Clear
6:00 AM 93.2 °F 107.2 °F 77.0 °F 59% 29.59 in - SW 9.2 mph - N/A   Clear
8:00 AM 102.2 °F 103.6 °F 60.8 °F 26% 29.62 in 5.0 mi SW 6.9 mph - N/A   Unknown
9:00 AM 108 °F - 54 °F 10% 29.62 in 5 mi SW 11.5 mph - -   Widespread Dust
9:00 AM 107.6 °F 106.1 °F 53.6 °F 17% 29.59 in 5.0 mi SW 11.5 mph - N/A   Unknown
10:00 AM 111.2 °F 109.6 °F 53.6 °F 15% 29.59 in - WSW 10.4 mph - N/A   Clear
11:00 AM 114.8 °F - 50.0 °F 12% 29.59 in - SW 11.5 mph - N/A   Clear
12:00 PM 116.6 °F - 51.8 °F 12% 29.56 in - SW 9.2 mph - N/A   Clear
1:00 PM 116.6 °F - 48.2 °F 11% 29.56 in - WSW 5.8 mph - N/A   Clear
2:00 PM 114.8 °F 125.3 °F 69.8 °F 24% 29.53 in - East 10.4 mph - N/A   Clear
3:00 PM 113 °F - 65 °F 14% 29.53 in 6 mi East 8.1 mph - -   Scattered Clouds
3:00 PM 113.0 °F 118.1 °F 64.4 °F 21% 29.50 in - East 8.1 mph - N/A   Clear
4:00 PM 100.4 °F 126.1 °F 82.4 °F 56% 29.53 in - NNE 12.7 mph - N/A   Clear
5:00 PM 100.4 °F 116.5 °F 77.0 °F 47% 29.53 in 5.6 mi NE 10.4 mph - N/A   Unknown
6:00 PM 96.8 °F 118.6 °F 80.6 °F 60% 29.53 in 5.0 mi ENE 6.9 mph - N/A   Unknown
7:00 PM 95.0 °F 119.6 °F 82.4 °F 67% 29.56 in 5.0 mi East 9.2 mph - N/A   Unknown
8:00 PM 93.2 °F 120.9 °F 84.2 °F 75% 29.56 in 5.0 mi ESE 6.9 mph - N/A   Unknown
9:00 PM 94 °F - 84 °F 66% 29.57 in 6 mi ESE 3.5 mph - -  
9:00 PM 93.2 °F 120.9 °F 84.2 °F 75% 29.56 in - ESE 3.5 mph - N/A   Clear
10:00 PM 96.8 °F 114.8 °F 78.8 °F 56% 29.56 in - Variable 2.3 mph - N/A   Clear
11:00 PM 96.8 °F 118.6 °F 80.6 °F 60% 29.53 in - Variable 2.3 mph - N/A   Clear